{"data":{"norad_id":61758,"intl_designator":"2024-199Z","name":"SITRO-AIS 20","alt_names":[],"object_type":"PAYLOAD","status":"ACTIVE","operator":null,"country":"CIS","launch_date":"2024-11-04","launch_site_code":"VOSTO","launch_vehicle":null,"mission":null,"orbit_class":"UNKNOWN","rcs_meters":null,"size_class":null,"mass_kg":null,"dimensions":null,"purposes":[],"wikipedia_slug":null,"has_3d_model":false,"image_url":null,"decayed_at":null,"tle_current":{"epoch":"2026-05-25T04:32:05.883072Z","epoch_age_seconds":69094,"freshness":"FRESH","line1":"1 61758U 24199Z   26145.18895698  .00002302  00000+0  20038-3 0  9996","line2":"2 61758  97.3261 346.1882 0007215 132.6252 227.5581 14.97814128131690","mean_motion":14.97814128,"eccentricity":0.0007215,"inclination_deg":97.3261,"raan_deg":346.1882,"arg_perigee_deg":132.6252,"mean_anomaly_deg":227.5581,"bstar":0.00020038,"rev_number":13169,"period_min":96.140099968399,"perigee_km":568.63592489912,"apogee_km":578.66735590722,"semimajor_km":6951.7886404032,"source":"CELESTRAK","updated_at":"2026-05-25T13:38:02.555832Z"}}}